sat.trackr.live / text

‹ back to catalog

STARLINK-36579

NORAD 67541 · 2026-014K

PAYLOAD ACTIVE UNKNOWN

§ Identity

Operator
Country
US
Launch date
2026-01-22
Launch site
AFWTR
Launch vehicle
Mass (kg)
RCS (m²)

Purposes: comms

External: N2YO · Heavens-Above · Gunter

§ Orbital elements

Epoch: 2026-05-25T03:03:45.466848Z

Period
93.91 min
Inclination
97.2876°
Eccentricity
0.0001095
Mean motion
15.33460714 rev/d
Perigee alt
464.7 km
Apogee alt
466.2 km
Semi-major
6,843.6 km
B*
8.8642e-4
RAAN
32.2630°
Arg perigee
105.9026°
Mean anomaly
254.2337°
Rev number
2,050

§ Raw data

STARLINK-365791 67541U 26014K   26145.12760957  .00028665  00000+0  88642-3 0  99982 67541  97.2876  32.2630 0001095 105.9026 254.2337 15.33460714 20505

JSON: /api/v1/satellites/67541 · /tle

For live sub-satellite position, see the globe view (requires WebGL).

§ Visibility from observer

Set your observer location to see the next 7 days of passes ≥ 10°. The values pass through the URL so the page stays shareable.

No JS? Fill the form by hand. The geolocation button needs JavaScript.